DW7854 Weather Reports


time (UTC)temp
C
wind
direction
speed
KPH
gust
KPH
rain 1hr
cm
rain 24hr
cm
rain mn
cm
humidity
%
barometer
mb
20260507144605 17 74 3.2 8.0 0.00 0.13 0.00 71 1019.4
20260507144134 17 41 3.2 11.3 0.00 0.13 0.00 70 1018.7
20260507143234 16 66 1.6 9.7 0.00 0.13 0.00 74 1018.8
20260507143114 16 97 3.2 9.7 0.00 0.13 0.00 76 1019.3
20260507142334 16 72 3.2 8.0 0.00 0.13 0.00 75 1018.8
20260507141503 15 350 3.2 8.0 0.00 0.13 0.00 76 1019.3
20260507141434 15 47 1.6 9.7 0.00 0.13 0.00 76 1018.7
20260507140004 14 321 3.2 8.0 0.00 0.15 0.00 84 1019.2
20260507135634 14 340 4.8 8.0 0.00 0.15 0.00 86 1018.7
20260507134734 13 327 1.6 8.0 0.00 0.15 0.00 95 1018.7
20260507134509 13 331 3.2 8.0 0.00 0.15 0.00 96 1019.3
20260507133834 13 170 1.6 3.2 0.00 0.15 0.00 97 1018.7
20260507133134 12 221 0.0 3.2 0.00 0.15 0.00 97 1019.1
20260507132934 12 164 1.6 3.2 0.00 0.15 0.00 97 1018.4
20260507132034 12 141 3.2 8.0 0.00 0.15 0.00 97 1018.3
20260507131604 12 146 3.2 6.4 0.00 0.15 0.00 97 1018.9
20260507130234 11 174 1.6 3.2 0.00 0.15 0.00 97 1017.9
20260507130005 11 126 1.6 3.2 0.00 0.15 0.00 97 1018.4
20260507125334 10 201 1.6 3.2 0.00 0.15 0.00 96 1017.7
20260507124605 10 220 0.0 3.2 0.00 0.15 0.00 96 1018.2
20260507124434 10 236 0.0 3.2 0.00 0.15 0.00 96 1017.6
20260507123534 9 0 0.0 0.0 0.00 0.15 0.00 96 1017.4
20260507123105 8 350 0.0 0.0 0.00 0.15 0.00 95 1017.9
20260507122634 9 55 0.0 1.6 0.00 0.15 0.00 95 1017.2
20260507121734 9 302 0.0 1.6 0.00 0.15 0.00 95 1017.1
20260507121504 8 75 0.0 1.6 0.00 0.15 0.00 95 1017.7
20260507120834 9 280 0.0 1.6 0.00 0.15 0.00 95 1016.9
20260507120010 8 281 0.0 1.6 0.00 0.15 0.00 95 1017.2
20260507115934 9 327 0.0 1.6 0.00 0.15 0.00 95 1016.6
20260507115034 9 327 0.0 1.6 0.00 0.15 0.00 95 1016.4
20260507114640 8 328 0.0 1.6 0.00 0.15 0.00 95 1016.9
20260507114134 9 43 0.0 1.6 0.00 0.15 0.00 94 1016.4
20260507113234 9 0 0.0 0.0 0.00 0.15 0.00 94 1016.3
20260507113012 9 101 0.0 0.0 0.00 0.15 0.00 94 1016.9
20260507112334 9 0 0.0 0.0 0.00 0.15 0.00 94 1016.5
20260507111506 9 102 0.0 0.0 0.00 0.15 0.00 94 1017.0
20260507111434 9 0 0.0 0.0 0.00 0.15 0.00 94 1016.5
20260507110534 10 0 0.0 0.0 0.00 0.15 0.00 94 1016.3
20260507110004 9 339 0.0 0.0 0.00 0.15 0.00 94 1016.9
20260507105634 10 0 0.0 0.0 0.00 0.15 0.00 94 1016.3
20260507104734 10 0 0.0 0.0 0.00 0.15 0.00 94 1016.3
20260507104606 10 339 0.0 0.0 0.00 0.15 0.00 94 1016.9
20260507103004 10 339 0.0 0.0 0.00 0.15 0.00 94 1016.9
20260507102934 10 0 0.0 0.0 0.00 0.15 0.00 94 1016.4
20260507101614 10 339 0.0 0.0 0.00 0.15 0.00 94 1017.0
20260507101133 10 0 0.0 0.0 0.00 0.15 0.00 94 1016.4
20260507100233 10 0 0.0 0.0 0.00 0.15 0.00 94 1016.3
20260507100105 10 339 0.0 0.0 0.00 0.15 0.00 94 1016.8
20260507095334 10 338 0.0 1.6 0.00 0.15 0.00 94 1016.4
20260507094606 10 339 0.0 1.6 0.00 0.15 0.00 94 1016.8
20260507094434 11 0 0.0 0.0 0.00 0.15 0.00 94 1016.2
20260507093534 11 0 0.0 0.0 0.00 0.15 0.00 94 1016.0
20260507093104 11 339 0.0 0.0 0.00 0.15 0.00 94 1016.5
20260507092634 11 0 0.0 0.0 0.00 0.15 0.00 94 1016.0
20260507091733 11 0 0.0 0.0 0.00 0.15 0.00 94 1015.8
20260507091604 11 339 0.0 0.0 0.00 0.15 0.00 94 1016.4
20260507090833 11 0 0.0 0.0 0.00 0.15 0.00 94 1015.7
20260507090103 11 339 0.0 0.0 0.00 0.15 0.00 94 1016.1
20260507085033 11 0 0.0 0.0 0.00 0.15 0.00 94 1015.5
20260507084506 11 339 0.0 0.0 0.00 0.15 0.00 94 1016.0
20260507084133 12 0 0.0 0.0 0.00 0.15 0.00 94 1015.5
20260507083233 12 338 0.0 1.6 0.00 0.15 0.00 94 1015.6
20260507083008 11 339 0.0 3.2 0.00 0.15 0.00 94 1016.2
20260507082333 12 338 1.6 3.2 0.00 0.15 0.00 94 1015.8
20260507081606 11 339 1.6 6.4 0.00 0.15 0.00 94 1016.2
20260507080534 12 335 3.2 4.8 0.00 0.15 0.00 95 1015.8
20260507080120 11 336 3.2 6.4 0.00 0.15 0.00 95 1016.4
20260507075633 12 325 3.2 4.8 0.00 0.15 0.00 95 1015.9
20260507074733 12 320 3.2 4.8 0.00 0.15 0.00 94 1015.7
20260507074509 11 321 1.6 4.8 0.00 0.15 0.00 94 1016.2
20260507073109 12 321 0.0 0.0 0.00 0.15 0.00 94 1015.6
20260507072933 12 0 0.0 0.0 0.00 0.15 0.00 94 1015.2
20260507072033 12 0 0.0 0.0 0.00 0.15 0.00 94 1015.4
20260507071606 12 321 0.0 0.0 0.00 0.15 0.00 94 1016.0
20260507071133 12 0 0.0 0.0 0.00 0.15 0.00 94 1015.5
20260507070008 12 321 0.0 0.0 0.00 0.15 0.00 94 1016.3
20260507065333 12 0 0.0 0.0 0.00 0.15 0.00 94 1015.9
20260507064505 12 321 0.0 0.0 0.00 0.15 0.00 94 1016.5
20260507064433 12 0 0.0 0.0 0.00 0.15 0.00 94 1016.1
20260507063533 12 0 0.0 0.0 0.00 0.15 0.00 94 1016.2
20260507063107 12 321 0.0 0.0 0.00 0.15 0.00 94 1016.7
20260507062633 12 0 0.0 0.0 0.00 0.15 0.00 94 1016.2
20260507061733 12 0 0.0 0.0 0.00 0.15 0.00 94 1016.2
20260507061504 12 321 0.0 0.0 0.00 0.15 0.00 94 1016.7
20260507060833 12 0 0.0 0.0 0.00 0.15 0.00 94 1016.4
20260507060005 12 321 0.0 0.0 0.00 0.15 0.00 94 1016.9
20260507055933 12 0 0.0 0.0 0.00 0.15 0.00 94 1016.5
20260507055033 12 0 0.0 0.0 0.00 0.15 0.00 94 1016.6
20260507054516 12 321 0.0 0.0 0.00 0.15 0.00 94 1016.9
20260507054133 12 0 0.0 0.0 0.00 0.15 0.00 94 1016.5
20260507053233 12 0 0.0 0.0 0.00 0.15 0.00 94 1016.4
20260507053008 12 321 0.0 0.0 0.00 0.15 0.00 94 1016.8
20260507052333 12 0 0.0 0.0 0.00 0.15 0.00 94 1016.4
20260507051508 12 321 0.0 0.0 0.00 0.15 0.00 94 1016.8
20260507051433 12 0 0.0 0.0 0.00 0.15 0.00 94 1016.4
20260507050103 12 321 0.0 0.0 0.00 0.15 0.00 94 1016.8
20260507044733 12 0 0.0 0.0 0.00 0.15 0.15 94 1016.5
20260507043834 12 0 0.0 0.0 0.00 0.15 0.15 94 1016.4
20260507043103 12 321 0.0 0.0 0.00 0.15 0.15 94 1016.8
20260507042933 12 0 0.0 0.0 0.00 0.15 0.15 94 1016.3
20260507042033 12 0 0.0 0.0 0.00 0.15 0.15 94 1016.3
20260507041503 12 321 0.0 0.0 0.00 0.15 0.15 94 1016.6
20260507041133 12 0 0.0 0.0 0.00 0.15 0.15 94 1016.3
20260507040233 12 321 0.0 1.6 0.00 0.15 0.15 94 1016.2
20260507040011 12 321 0.0 1.6 0.00 0.15 0.15 94 1016.6
20260507034505 12 321 0.0 0.0 0.00 0.15 0.15 93 1016.5
20260507034433 12 0 0.0 0.0 0.00 0.15 0.15 93 1016.0
20260507033533 12 0 0.0 0.0 0.00 0.15 0.15 93 1015.9
20260507033004 12 321 0.0 0.0 0.00 0.15 0.15 93 1016.3
20260507032633 12 0 0.0 0.0 0.00 0.15 0.15 93 1015.8
20260507031733 12 0 0.0 0.0 0.00 0.15 0.15 93 1015.7
20260507031504 12 321 0.0 1.6 0.00 0.15 0.15 93 1016.1
20260507030005 12 321 0.0 3.2 0.00 0.15 0.15 93 1015.7
20260507025933 12 321 0.0 1.6 0.00 0.15 0.15 93 1015.3
20260507025033 12 0 0.0 0.0 0.00 0.15 0.15 93 1015.1
20260507024510 11 321 0.0 3.2 0.00 0.15 0.15 93 1015.3
20260507024133 12 320 1.6 3.2 0.00 0.15 0.15 93 1014.9
20260507023233 12 321 0.0 1.6 0.00 0.15 0.15 92 1014.8
20260507023104 11 321 0.0 1.6 0.00 0.15 0.15 92 1015.2
20260507022333 12 321 0.0 4.8 0.00 0.15 0.15 92 1014.8
20260507021509 11 321 0.0 3.2 0.00 0.15 0.15 93 1015.1
20260507021433 12 318 1.6 4.8 0.00 0.15 0.15 92 1014.8
20260507020533 12 318 1.6 6.4 0.00 0.15 0.15 93 1014.7
20260507020116 11 310 1.6 6.4 0.00 0.15 0.15 93 1015.0
20260507015633 12 1 1.6 4.8 0.00 0.15 0.15 93 1014.4
20260507014733 12 15 1.6 4.8 0.00 0.15 0.15 93 1014.2
20260507014508 11 22 0.0 4.8 0.00 0.15 0.15 93 1014.5
20260507013833 12 344 1.6 4.8 0.00 0.15 0.15 93 1014.1
20260507013103 11 336 0.0 3.2 0.00 0.15 0.15 93 1014.4
20260507012933 12 336 0.0 1.6 0.00 0.15 0.15 93 1013.9
20260507012033 12 4 1.6 3.2 0.00 0.15 0.15 92 1013.8
20260507011606 11 21 0.0 3.2 0.00 0.15 0.15 93 1014.2
20260507011133 12 328 0.0 3.2 0.00 0.15 0.15 93 1013.8
20260507010010 11 325 1.6 3.2 0.00 0.15 0.15 92 1014.4
20260507005333 12 354 0.0 4.8 0.00 0.15 0.15 92 1014.0
20260507004608 11 319 1.6 6.4 0.00 0.15 0.15 93 1014.2
20260507004433 12 36 1.6 8.0 0.00 0.15 0.15 92 1013.7
20260507003533 12 357 1.6 3.2 0.00 0.15 0.15 93 1013.9
20260507003103 11 28 0.0 6.4 0.00 0.15 0.15 93 1014.3
20260507002633 12 149 3.2 6.4 0.00 0.15 0.15 93 1014.0
20260507001733 12 319 3.2 8.0 0.00 0.15 0.15 92 1014.6
20260507001504 11 216 3.2 8.0 0.00 0.15 0.15 92 1014.6
20260507000833 12 353 3.2 9.7 0.00 0.15 0.15 92 1013.7
20260507000009 11 340 3.2 9.7 0.00 0.15 0.15 92 1013.5
20260506235933 12 1 3.2 8.0 0.00 0.15 0.15 92 1013.2
20260506235033 12 19 3.2 9.7 0.00 0.15 0.15 92 1012.9
20260506234603 11 41 3.2 8.0 0.00 0.15 0.15 92 1013.0
20260506234133 12 18 3.2 6.4 0.00 0.15 0.15 92 1012.7
20260506233233 12 25 3.2 9.7 0.00 0.15 0.15 92 1013.4
20260506233007 11 334 3.2 9.7 0.00 0.15 0.15 92 1013.9
20260506232333 12 29 3.2 9.7 0.00 0.15 0.15 92 1013.4
20260506231504 11 10 1.6 6.4 0.03 0.15 0.15 92 1013.7
20260506231433 12 9 3.2 6.4 0.03 0.15 0.15 92 1013.4
20260506230108 11 341 6.4 12.9 0.05 0.15 0.15 92 1013.7
20260506225633 12 15 4.8 11.3 0.05 0.15 0.15 92 1012.9
20260506224503 11 78 1.6 12.9 0.05 0.15 0.15 91 1014.2
20260506223833 12 36 3.2 12.9 0.05 0.15 0.15 92 1013.3
20260506223106 11 92 3.2 11.3 0.05 0.15 0.15 91 1013.2
20260506222933 12 39 1.6 11.3 0.05 0.15 0.15 91 1013.0
20260506222033 12 102 0.0 1.6 0.03 0.13 0.13 91 1013.7
20260506221612 11 321 0.0 3.2 0.03 0.13 0.13 91 1014.0
20260506221133 12 38 1.6 4.8 0.00 0.10 0.10 90 1013.8
20260506220233 12 34 0.0 4.8 0.00 0.10 0.10 90 1013.6
20260506220004 11 63 0.0 9.7 0.00 0.10 0.10 90 1013.9
20260506215333 12 2 4.8 12.9 0.00 0.10 0.10 90 1013.1
20260506214509 11 46 4.8 9.7 0.00 0.10 0.10 89 1013.2
20260506214433 12 8 3.2 6.4 0.00 0.10 0.10 90 1013.0
20260506213533 12 20 4.8 11.3 0.00 0.10 0.10 89 1013.0
20260506213003 11 100 3.2 14.5 0.00 0.10 0.10 89 1013.3
20260506212633 12 22 6.4 14.5 0.00 0.10 0.10 89 1012.7
20260506211733 12 19 6.4 12.9 0.00 0.10 0.10 89 1012.3
20260506211604 12 360 6.4 14.5 0.00 0.10 0.10 89 1012.6
20260506210833 12 38 6.4 17.7 0.00 0.10 0.10 89 1012.2
20260506210006 12 61 4.8 11.3 0.00 0.10 0.10 89 1012.4
20260506205933 12 52 6.4 14.5 0.00 0.10 0.10 89 1012.2
20260506205033 12 32 6.4 16.1 0.00 0.10 0.10 88 1012.6
20260506204604 12 39 6.4 16.1 0.00 0.10 0.10 88 1012.8
20260506204133 12 8 4.8 17.7 0.00 0.10 0.10 88 1012.6
20260506203233 12 60 3.2 11.3 0.00 0.10 0.10 88 1012.8
20260506203003 12 196 4.8 11.3 0.00 0.10 0.10 88 1012.9
20260506202333 12 44 4.8 12.9 0.00 0.10 0.10 88 1012.3
20260506201511 12 148 6.4 16.1 0.00 0.10 0.10 88 1012.8
20260506201433 12 63 4.8 16.1 0.00 0.10 0.10 88 1012.7
20260506200533 12 38 4.8 16.1 0.00 0.10 0.10 88 1012.5
20260506200005 12 12 3.2 16.1 0.00 0.10 0.10 89 1012.6
20260506195633 12 24 4.8 17.7 0.00 0.10 0.10 89 1012.3
20260506194733 12 34 6.4 19.3 0.00 0.10 0.10 89 1011.9
20260506194604 12 28 6.4 19.3 0.00 0.10 0.10 89 1012.0
20260506193833 12 34 6.4 19.3 0.00 0.10 0.10 88 1012.3
20260506193004 12 317 6.4 24.1 0.00 0.10 0.10 88 1012.4
20260506192933 12 44 8.0 22.5 0.00 0.10 0.10 88 1012.3
20260506191603 12 32 9.7 20.9 0.00 0.10 0.10 88 1011.8
20260506191133 12 51 8.0 16.1 0.00 0.10 0.10 89 1012.2
20260506190233 12 65 9.7 25.7 0.03 0.10 0.10 91 1012.0
20260506190008 12 360 12.9 25.7 0.03 0.10 0.10 90 1011.9
20260506185333 12 89 9.7 25.7 0.05 0.10 0.10 91 1011.5
20260506184503 12 155 6.4 22.5 0.05 0.10 0.10 92 1011.7
20260506184433 12 70 4.8 22.5 0.05 0.10 0.10 92 1011.7
20260506183106 12 116 4.8 12.9 0.08 0.10 0.10 92 1014.0
20260506182633 12 48 4.8 12.9 0.08 0.10 0.10 93 1013.5
20260506181733 12 43 3.2 12.9 0.08 0.10 0.10 93 1013.5
20260506181508 11 130 3.2 12.9 0.08 0.10 0.10 93 1013.7
20260506180833 12 103 3.2 11.3 0.08 0.10 0.10 92 1014.0
20260506180104 11 225 1.6 11.3 0.05 0.08 0.08 91 1015.3
20260506175933 11 347 6.4 11.3 0.05 0.08 0.08 91 1015.1
20260506175033 12 354 4.8 12.9 0.03 0.05 0.05 90 1014.9
20260506174604 11 10 1.6 12.9 0.03 0.05 0.05 89 1014.8
20260506174133 12 70 3.2 16.1 0.03 0.05 0.05 89 1013.9
20260506173233 12 85 6.4 16.1 0.00 0.03 0.03 89 1014.0
20260506173113 12 120 6.4 16.1 0.00 0.03 0.03 89 1014.2
20260506172333 12 36 3.2 9.7 0.00 0.03 0.03 88 1015.2
20260506171505 12 255 1.6 14.5 0.00 0.03 0.03 89 1015.7
20260506171433 12 337 6.4 12.9 0.00 0.03 0.03 89 1015.5
20260506170533 12 15 6.4 14.5 0.00 0.03 0.03 89 1013.2
20260506170103 12 360 4.8 14.5 0.00 0.03 0.03 89 1013.3
20260506165633 12 21 6.4 16.1 0.00 0.03 0.03 89 1013.5
20260506164507 12 42 6.4 14.5 0.00 0.03 0.03 89 1014.6
20260506163833 12 92 3.2 8.0 0.00 0.03 0.03 90 1014.4
20260506163003 12 136 1.6 19.3 0.00 0.03 0.03 90 1014.4
20260506162933 12 33 8.0 19.3 0.00 0.03 0.03 90 1014.2
20260506162033 12 29 6.4 16.1 0.00 0.03 0.03 90 1013.3
20260506161604 12 355 4.8 17.7 0.00 0.03 0.03 91 1013.9
20260506161133 12 25 6.4 17.7 0.00 0.03 0.03 91 1013.5
20260506160233 12 48 3.2 12.9 0.00 0.03 0.03 91 1013.2
20260506160004 12 28 3.2 12.9 0.00 0.03 0.03 91 1013.3
20260506155333 12 39 4.8 12.9 0.00 0.03 0.03 91 1013.3
20260506154504 12 12 4.8 8.0 0.00 0.03 0.03 91 1013.5
20260506154433 12 47 4.8 9.7 0.00 0.03 0.03 91 1013.3
20260506153533 12 37 6.4 17.7 0.00 0.03 0.03 91 1013.2
20260506153115 12 309 1.6 19.3 0.00 0.03 0.03 91 1013.3
20260506152633 13 39 6.4 20.9 0.00 0.03 0.03 92 1013.0
20260506151733 13 32 4.8 11.3 0.00 0.03 0.03 92 1012.9
20260506151503 13 325 1.6 12.9 0.00 0.03 0.03 92 1012.9
20260506150833 13 62 3.2 14.5 0.00 0.03 0.03 93 1012.8
20260506150004 13 145 3.2 16.1 0.00 0.03 0.03 93 1012.4
20260506145933 13 49 4.8 16.1 0.00 0.03 0.03 92 1012.3
20260506145032 13 33 4.8 12.9 0.03 0.03 0.03 93 1012.3